QPF
0.00 0.01 0.01 0.01 0.01 0.01 0.01 0.01 0.01 0.01 0.01 0.01 0.02 0.02 0.01 0.02 0.01 0.01 0.02 0.02 0.02 0.02 0.03 0.03 0.03 0.03 0.03 0.03 0.03 0.03 0.02 0.01 0.01 0.01 0.01 0.01 0.01 0.01 0.01 0.02 0.02 0.02 0.02
0.00 0.01 0.01 0.01 0.02 0.02 0.02 0.01 0.01 0.01 0.01 0.02 0.02 0.02 0.03 0.03 0.02 0.02 0.02 0.02 0.03 0.03 0.04 0.05 0.03 0.03 0.03 0.02 0.02 0.02 0.01 0.00 0.00 0.00 0.00 0.00 0.01 0.01 0.01 0.02 0.03 0.03 0.02
0.00 0.01 0.01 0.01 0.02 0.02 0.02 0.01 0.01 0.01 0.01 0.01 0.02 0.03 0.04 0.03 0.03 0.03 0.02 0.02 0.03 0.03 0.03 0.04 0.03 0.02 0.02 0.02 0.01 0.01 0.01 0.00 0.00 0.00 0.00 0.00 0.00 0.01 0.01 0.02 0.03 0.03 0.03
0.01 0.01 0.01 0.01 0.02 0.02 0.01 0.02 0.01 0.01 0.01 0.01 0.02 0.02 0.03 0.05 0.05 0.04 0.04 0.03 0.03 0.03 0.03 0.03 0.02 0.02 0.02 0.01 0.01 0.01 0.01 0.00 0.00 0.00 0.00 0.00 0.00 0.01 0.01 0.02 0.02 0.03 0.03
0.01 0.02 0.02 0.02 0.02 0.02 0.01 0.02 0.02 0.01 0.01 0.01 0.01 0.01 0.02 0.03 0.04 0.04 0.04 0.04 0.03 0.03 0.03 0.03 0.01 0.01 0.02 0.01 0.01 0.00 0.01 0.01 0.00 0.00 0.00 0.01 0.01 0.02 0.03 0.02 0.02 0.03 0.04
0.02 0.02 0.02 0.02 0.02 0.02 0.02 0.02 0.01 0.01 0.01 0.01 0.01 0.01 0.01 0.02 0.03 0.03 0.04 0.04 0.05 0.05 0.04 0.03 0.03 0.03 0.02 0.02 0.02 0.01 0.01 0.01 0.01 0.00 0.01 0.01 0.01 0.03 0.03 0.02 0.02 0.03 0.05
0.02 0.02 0.02 0.03 0.03 0.04 0.03 0.02 0.01 0.01 0.01 0.01 0.01 0.01 0.01 0.02 0.03 0.04 0.04 0.04 0.05 0.05 0.05 0.03 0.03 0.04 0.03 0.02 0.02 0.02 0.01 0.01 0.00 0.00 0.01 0.01 0.02 0.03 0.03 0.03 0.03 0.03 0.05
0.03 0.02 0.02 0.03 0.03 0.04 0.03 0.02 0.02 0.02 0.01 0.01 0.01 0.01 0.02 0.02 0.03 0.04 0.03 0.03 0.05 0.06 0.05 0.02 0.02 0.03 0.03 0.02 0.02 0.03 0.02 0.01 0.00 0.00 0.01 0.02 0.02 0.02 0.02 0.02 0.03 0.04 0.05
0.05 0.04 0.04 0.03 0.03 0.03 0.02 0.02 0.02 0.02 0.01 0.01 0.01 0.01 0.01 0.02 0.03 0.04 0.04 0.04 0.06 0.05 0.04 0.02 0.02 0.02 0.02 0.02 0.02 0.02 0.02 0.01 0.00 0.01 0.01 0.02 0.02 0.02 0.02 0.02 0.03 0.04 0.05
0.06 0.05 0.04 0.04 0.03 0.02 0.02 0.01 0.01 0.02 0.02 0.01 0.01 0.00 0.00 0.01 0.02 0.04 0.05 0.04 0.06 0.06 0.05 0.04 0.03 0.03 0.03 0.03 0.02 0.02 0.02 0.01 0.00 0.00 0.01 0.01 0.03 0.03 0.04 0.04 0.04 0.04 0.04
0.04 0.06 0.05 0.04 0.03 0.03 0.02 0.02 0.02 0.01 0.02 0.01 0.01 0.00 0.00 0.01 0.01 0.02 0.04 0.04 0.05 0.08 0.07 0.04 0.03 0.03 0.04 0.03 0.02 0.01 0.01 0.01 0.01 0.00 0.01 0.02 0.03 0.04 0.04 0.04 0.04 0.04 0.04
0.04 0.07 0.07 0.07 0.04 0.02 0.01 0.02 0.02 0.02 0.02 0.02 0.01 0.00 0.00 0.00 0.01 0.01 0.03 0.04 0.04 0.06 0.08 0.06 0.04 0.03 0.03 0.02 0.02 0.02 0.01 0.01 0.01 0.00 0.01 0.02 0.04 0.05 0.04 0.03 0.04 0.04 0.03
0.06 0.06 0.06 0.06 0.05 0.03 0.01 0.01 0.02 0.03 0.03 0.03 0.02 0.01 0.00 0.00 0.00 0.01 0.03 0.06 0.07 0.07 0.06 0.04 0.04 0.03 0.02 0.01 0.01 0.02 0.01 0.01 0.01 0.01 0.00 0.02 0.03 0.05 0.05 0.04 0.04 0.04 0.03
0.06 0.05 0.05 0.06 0.05 0.03 0.02 0.02 0.02 0.03 0.03 0.02 0.02 0.02 0.01 0.01 0.01 0.01 0.04 0.06 0.06 0.05 0.04 0.03 0.03 0.02 0.01 0.01 0.01 0.02 0.02 0.02 0.02 0.01 0.01 0.01 0.02 0.05 0.07 0.06 0.05 0.03 0.02
0.03 0.04 0.05 0.07 0.05 0.03 0.02 0.02 0.02 0.03 0.03 0.03 0.02 0.02 0.02 0.02 0.02 0.02 0.02 0.06 0.08 0.06 0.04 0.03 0.03 0.03 0.03 0.02 0.03 0.03 0.03 0.03 0.02 0.01 0.01 0.02 0.02 0.04 0.07 0.08 0.07 0.04 0.03
0.02 0.03 0.04 0.06 0.05 0.04 0.02 0.02 0.02 0.03 0.04 0.03 0.02 0.02 0.02 0.03 0.03 0.04 0.04 0.04 0.06 0.07 0.06 0.04 0.04 0.05 0.05 0.05 0.05 0.04 0.04 0.04 0.02 0.01 0.01 0.02 0.03 0.05 0.07 0.08 0.07 0.06 0.04
0.01 0.02 0.03 0.05 0.04 0.03 0.03 0.02 0.02 0.02 0.04 0.05 0.03 0.02 0.03 0.03 0.04 0.06 0.08 0.07 0.05 0.07 0.06 0.06 0.06 0.07 0.06 0.04 0.03 0.03 0.03 0.03 0.02 0.02 0.03 0.03 0.04 0.06 0.08 0.08 0.07 0.05 0.05
0.02 0.02 0.02 0.03 0.04 0.02 0.02 0.02 0.02 0.02 0.03 0.06 0.06 0.04 0.03 0.03 0.04 0.06 0.09 0.09 0.08 0.08 0.07 0.07 0.07 0.06 0.06 0.05 0.04 0.03 0.02 0.03 0.04 0.04 0.03 0.03 0.04 0.07 0.10 0.07 0.05 0.06 0.06
0.01 0.02 0.02 0.02 0.03 0.02 0.01 0.01 0.02 0.02 0.02 0.04 0.06 0.05 0.04 0.04 0.04 0.05 0.08 0.09 0.08 0.09 0.08 0.06 0.06 0.08 0.08 0.07 0.07 0.06 0.06 0.05 0.06 0.06 0.04 0.03 0.03 0.06 0.08 0.07 0.04 0.04 0.05
0.02 0.03 0.02 0.02 0.02 0.03 0.03 0.03 0.02 0.02 0.03 0.03 0.03 0.04 0.05 0.05 0.05 0.05 0.06 0.08 0.09 0.10 0.10 0.09 0.07 0.07 0.09 0.10 0.09 0.09 0.11 0.12 0.10 0.07 0.05 0.05 0.05 0.05 0.07 0.07 0.05 0.05 0.05
0.02 0.04 0.02 0.01 0.01 0.01 0.02 0.03 0.02 0.01 0.01 0.01 0.02 0.02 0.03 0.05 0.06 0.05 0.05 0.05 0.07 0.08 0.09 0.10 0.10 0.10 0.10 0.12 0.12 0.10 0.10 0.13 0.14 0.11 0.07 0.06 0.06 0.05 0.05 0.05 0.06 0.05 0.05
0.02 0.05 0.03 0.01 0.01 0.01 0.01 0.01 0.02 0.02 0.02 0.03 0.03 0.04 0.03 0.03 0.04 0.05 0.05 0.06 0.06 0.07 0.06 0.07 0.08 0.11 0.11 0.12 0.13 0.12 0.11 0.13 0.13 0.13 0.10 0.07 0.07 0.06 0.04 0.04 0.05 0.05 0.05
0.02 0.05 0.05 0.02 0.02 0.01 0.02 0.01 0.01 0.01 0.02 0.02 0.03 0.04 0.05 0.04 0.04 0.05 0.04 0.06 0.06 0.07 0.06 0.05 0.06 0.06 0.07 0.09 0.11 0.12 0.11 0.10 0.10 0.10 0.09 0.07 0.06 0.06 0.05 0.04 0.04 0.04 0.04
0.01 0.03 0.05 0.04 0.02 0.03 0.04 0.01 0.01 0.01 0.01 0.02 0.04 0.04 0.06 0.06 0.04 0.05 0.06 0.05 0.05 0.06 0.06 0.06 0.06 0.06 0.05 0.07 0.08 0.11 0.10 0.07 0.06 0.07 0.08 0.07 0.06 0.05 0.04 0.04 0.03 0.04 0.04
0.01 0.01 0.03 0.05 0.04 0.04 0.04 0.04 0.02 0.02 0.02 0.03 0.05 0.06 0.07 0.06 0.04 0.05 0.05 0.05 0.06 0.06 0.06 0.06 0.05 0.05 0.05 0.06 0.06 0.08 0.09 0.08 0.06 0.05 0.06 0.06 0.06 0.05 0.04 0.03 0.02 0.02 0.03
0.00 0.00 0.01 0.03 0.04 0.03 0.04 0.06 0.04 0.04 0.03 0.04 0.05 0.05 0.07 0.06 0.05 0.05 0.05 0.04 0.06 0.07 0.07 0.07 0.07 0.06 0.06 0.05 0.05 0.05 0.05 0.06 0.06 0.05 0.04 0.04 0.05 0.04 0.04 0.04 0.03 0.02 0.02
MSLP
1017.79 1017.19 1016.67 1016.31 1016.12 1016.07 1016.11 1016.16 1016.15 1016.06 1015.88 1015.65 1015.42 1015.25 1015.16 1015.18 1015.27 1015.41 1015.55 1015.66 1015.72 1015.74 1015.74 1015.74 1015.77 1015.85 1015.98 1016.13 1016.29 1016.43 1016.54 1016.61 1016.64 1016.66 1016.66 1016.68 1016.71 1016.76 1016.83 1016.91 1017.01 1017.13 1017.25
1017.64 1017.13 1016.70 1016.42 1016.29 1016.27 1016.31 1016.33 1016.29 1016.15 1015.93 1015.67 1015.44 1015.28 1015.22 1015.26 1015.39 1015.55 1015.71 1015.82 1015.89 1015.91 1015.90 1015.90 1015.93 1016.00 1016.11 1016.24 1016.38 1016.51 1016.61 1016.68 1016.73 1016.77 1016.82 1016.88 1016.95 1017.03 1017.13 1017.23 1017.33 1017.45 1017.57
1017.51 1017.08 1016.74 1016.52 1016.43 1016.43 1016.47 1016.47 1016.40 1016.23 1016.00 1015.74 1015.51 1015.36 1015.31 1015.36 1015.48 1015.63 1015.78 1015.88 1015.94 1015.95 1015.95 1015.96 1016.00 1016.08 1016.19 1016.32 1016.45 1016.57 1016.66 1016.74 1016.81 1016.89 1016.97 1017.08 1017.19 1017.31 1017.43 1017.54 1017.65 1017.77 1017.89
1017.41 1017.05 1016.77 1016.61 1016.55 1016.57 1016.59 1016.58 1016.49 1016.32 1016.08 1015.83 1015.61 1015.47 1015.41 1015.44 1015.53 1015.64 1015.74 1015.81 1015.85 1015.86 1015.88 1015.91 1015.99 1016.10 1016.24 1016.38 1016.52 1016.63 1016.73 1016.82 1016.90 1017.00 1017.12 1017.26 1017.41 1017.56 1017.69 1017.81 1017.93 1018.04 1018.17
1017.35 1017.06 1016.83 1016.71 1016.67 1016.69 1016.71 1016.68 1016.58 1016.40 1016.17 1015.94 1015.74 1015.59 1015.52 1015.52 1015.55 1015.60 1015.63 1015.65 1015.65 1015.66 1015.70 1015.78 1015.91 1016.08 1016.26 1016.44 1016.60 1016.73 1016.83 1016.92 1017.02 1017.13 1017.26 1017.41 1017.58 1017.73 1017.87 1018.00 1018.11 1018.22 1018.35
1017.36 1017.11 1016.93 1016.83 1016.81 1016.82 1016.82 1016.78 1016.67 1016.50 1016.28 1016.06 1015.88 1015.74 1015.65 1015.60 1015.57 1015.54 1015.50 1015.45 1015.42 1015.42 1015.48 1015.61 1015.81 1016.04 1016.29 1016.52 1016.71 1016.86 1016.97 1017.06 1017.14 1017.25 1017.37 1017.52 1017.67 1017.82 1017.96 1018.07 1018.18 1018.29 1018.43
1017.42 1017.22 1017.07 1017.00 1016.98 1016.98 1016.97 1016.90 1016.78 1016.61 1016.41 1016.21 1016.04 1015.90 1015.80 1015.71 1015.62 1015.52 1015.41 1015.30 1015.23 1015.22 1015.30 1015.47 1015.71 1016.01 1016.32 1016.61 1016.83 1017.00 1017.12 1017.20 1017.27 1017.35 1017.45 1017.57 1017.70 1017.82 1017.94 1018.04 1018.14 1018.26 1018.40
1017.52 1017.36 1017.25 1017.21 1017.20 1017.19 1017.15 1017.06 1016.92 1016.74 1016.55 1016.38 1016.23 1016.11 1016.00 1015.89 1015.76 1015.60 1015.43 1015.26 1015.14 1015.11 1015.19 1015.38 1015.66 1016.01 1016.36 1016.68 1016.94 1017.13 1017.25 1017.32 1017.37 1017.42 1017.49 1017.57 1017.66 1017.76 1017.85 1017.94 1018.03 1018.14 1018.30
1017.61 1017.51 1017.46 1017.45 1017.45 1017.44 1017.38 1017.26 1017.10 1016.91 1016.73 1016.57 1016.45 1016.36 1016.27 1016.16 1016.01 1015.81 1015.59 1015.37 1015.21 1015.14 1015.19 1015.36 1015.65 1016.00 1016.38 1016.72 1017.00 1017.20 1017.32 1017.38 1017.42 1017.45 1017.49 1017.54 1017.60 1017.66 1017.73 1017.80 1017.89 1018.01 1018.17
1017.68 1017.65 1017.66 1017.70 1017.73 1017.71 1017.64 1017.50 1017.31 1017.11 1016.93 1016.79 1016.70 1016.64 1016.58 1016.49 1016.34 1016.14 1015.88 1015.62 1015.40 1015.27 1015.27 1015.40 1015.65 1015.98 1016.33 1016.67 1016.96 1017.17 1017.30 1017.37 1017.41 1017.43 1017.45 1017.48 1017.52 1017.57 1017.62 1017.69 1017.78 1017.90 1018.07
1017.72 1017.76 1017.84 1017.94 1018.00 1018.00 1017.91 1017.75 1017.54 1017.33 1017.15 1017.02 1016.96 1016.94 1016.92 1016.86 1016.73 1016.53 1016.25 1015.95 1015.68 1015.48 1015.39 1015.44 1015.62 1015.89 1016.21 1016.53 1016.81 1017.03 1017.18 1017.27 1017.32 1017.35 1017.38 1017.40 1017.44 1017.48 1017.53 1017.60 1017.70 1017.84 1018.02
1017.72 1017.84 1017.99 1018.15 1018.25 1018.26 1018.17 1017.99 1017.77 1017.54 1017.36 1017.24 1017.21 1017.22 1017.23 1017.21 1017.11 1016.92 1016.63 1016.30 1015.96 1015.69 1015.51 1015.46 1015.55 1015.74 1016.00 1016.28 1016.55 1016.78 1016.95 1017.07 1017.16 1017.22 1017.26 1017.30 1017.35 1017.40 1017.46 1017.55 1017.66 1017.80 1017.99
1017.70 1017.88 1018.10 1018.31 1018.44 1018.46 1018.38 1018.20 1017.96 1017.73 1017.54 1017.44 1017.42 1017.45 1017.50 1017.51 1017.43 1017.25 1016.95 1016.58 1016.20 1015.84 1015.57 1015.43 1015.41 1015.52 1015.71 1015.96 1016.21 1016.45 1016.65 1016.81 1016.93 1017.02 1017.10 1017.17 1017.23 1017.30 1017.38 1017.48 1017.60 1017.76 1017.96
1017.67 1017.91 1018.17 1018.41 1018.56 1018.60 1018.52 1018.34 1018.11 1017.88 1017.70 1017.60 1017.59 1017.63 1017.69 1017.71 1017.64 1017.46 1017.16 1016.76 1016.33 1015.91 1015.57 1015.33 1015.23 1015.26 1015.40 1015.61 1015.85 1016.10 1016.32 1016.51 1016.67 1016.79 1016.89 1016.98 1017.06 1017.14 1017.24 1017.36 1017.50 1017.67 1017.88
1017.65 1017.92 1018.20 1018.44 1018.60 1018.65 1018.58 1018.42 1018.21 1018.00 1017.83 1017.73 1017.72 1017.76 1017.81 1017.82 1017.74 1017.54 1017.23 1016.81 1016.35 1015.89 1015.50 1015.21 1015.05 1015.03 1015.12 1015.30 1015.53 1015.78 1016.01 1016.22 1016.39 1016.53 1016.64 1016.74 1016.83 1016.92 1017.03 1017.15 1017.31 1017.49 1017.70
1017.66 1017.92 1018.18 1018.41 1018.56 1018.62 1018.57 1018.44 1018.26 1018.08 1017.94 1017.85 1017.83 1017.85 1017.87 1017.84 1017.74 1017.52 1017.18 1016.76 1016.28 1015.81 1015.40 1015.09 1014.91 1014.86 1014.93 1015.09 1015.31 1015.54 1015.77 1015.98 1016.14 1016.27 1016.38 1016.46 1016.55 1016.64 1016.74 1016.88 1017.04 1017.22 1017.43
1017.68 1017.90 1018.13 1018.32 1018.46 1018.52 1018.50 1018.41 1018.29 1018.16 1018.05 1017.98 1017.95 1017.94 1017.91 1017.84 1017.68 1017.43 1017.07 1016.64 1016.17 1015.71 1015.31 1015.02 1014.84 1014.79 1014.86 1015.01 1015.21 1015.43 1015.64 1015.81 1015.95 1016.06 1016.14 1016.20 1016.26 1016.34 1016.45 1016.58 1016.74 1016.92 1017.12
1017.69 1017.87 1018.05 1018.20 1018.31 1018.37 1018.39 1018.37 1018.31 1018.25 1018.20 1018.15 1018.11 1018.06 1017.98 1017.84 1017.63 1017.33 1016.95 1016.51 1016.06 1015.64 1015.28 1015.02 1014.87 1014.84 1014.91 1015.05 1015.24 1015.43 1015.60 1015.74 1015.84 1015.90 1015.95 1015.99 1016.04 1016.10 1016.20 1016.33 1016.48 1016.65 1016.84
1017.67 1017.82 1017.94 1018.05 1018.14 1018.21 1018.27 1018.32 1018.35 1018.37 1018.37 1018.36 1018.31 1018.23 1018.09 1017.89 1017.61 1017.26 1016.86 1016.42 1016.00 1015.61 1015.30 1015.09 1014.98 1014.98 1015.06 1015.19 1015.35 1015.51 1015.64 1015.74 1015.80 1015.83 1015.85 1015.87 1015.92 1015.98 1016.08 1016.20 1016.34 1016.50 1016.66
1017.63 1017.74 1017.82 1017.89 1017.97 1018.06 1018.17 1018.29 1018.40 1018.50 1018.57 1018.59 1018.55 1018.44 1018.25 1017.99 1017.65 1017.26 1016.83 1016.41 1016.00 1015.66 1015.40 1015.23 1015.15 1015.17 1015.25 1015.37 1015.50 1015.62 1015.72 1015.78 1015.82 1015.83 1015.85 1015.89 1015.94 1016.03 1016.14 1016.26 1016.39 1016.52 1016.64
1017.55 1017.65 1017.71 1017.76 1017.83 1017.94 1018.09 1018.27 1018.46 1018.63 1018.75 1018.81 1018.78 1018.65 1018.43 1018.12 1017.75 1017.33 1016.89 1016.46 1016.08 1015.77 1015.54 1015.40 1015.35 1015.37 1015.44 1015.54 1015.64 1015.72 1015.79 1015.83 1015.87 1015.90 1015.94 1016.01 1016.11 1016.24 1016.38 1016.51 1016.64 1016.73 1016.79
1017.47 1017.57 1017.62 1017.65 1017.72 1017.84 1018.02 1018.24 1018.49 1018.71 1018.89 1018.97 1018.96 1018.83 1018.60 1018.27 1017.88 1017.44 1017.00 1016.59 1016.22 1015.93 1015.72 1015.59 1015.53 1015.54 1015.58 1015.64 1015.71 1015.76 1015.81 1015.86 1015.91 1015.98 1016.09 1016.22 1016.39 1016.57 1016.76 1016.92 1017.03 1017.08 1017.08
1017.43 1017.53 1017.57 1017.59 1017.65 1017.76 1017.95 1018.19 1018.45 1018.71 1018.91 1019.02 1019.03 1018.92 1018.70 1018.39 1018.01 1017.59 1017.16 1016.77 1016.42 1016.14 1015.92 1015.78 1015.70 1015.66 1015.66 1015.67 1015.70 1015.73 1015.77 1015.83 1015.92 1016.05 1016.24 1016.46 1016.71 1016.97 1017.20 1017.38 1017.49 1017.50 1017.43
1017.48 1017.57 1017.58 1017.58 1017.60 1017.69 1017.85 1018.07 1018.32 1018.57 1018.78 1018.92 1018.95 1018.88 1018.70 1018.43 1018.09 1017.72 1017.34 1016.98 1016.65 1016.37 1016.14 1015.97 1015.84 1015.75 1015.68 1015.64 1015.62 1015.62 1015.66 1015.74 1015.87 1016.08 1016.34 1016.66 1016.99 1017.32 1017.61 1017.81 1017.91 1017.88 1017.75
1017.65 1017.69 1017.66 1017.60 1017.57 1017.60 1017.70 1017.86 1018.07 1018.29 1018.49 1018.63 1018.70 1018.68 1018.56 1018.37 1018.12 1017.82 1017.50 1017.19 1016.89 1016.62 1016.38 1016.16 1015.98 1015.82 1015.69 1015.58 1015.51 1015.48 1015.50 1015.60 1015.78 1016.04 1016.38 1016.77 1017.18 1017.57 1017.89 1018.12 1018.21 1018.15 1017.96
1017.95 1017.91 1017.80 1017.66 1017.55 1017.48 1017.49 1017.56 1017.70 1017.86 1018.03 1018.18 1018.28 1018.32 1018.29 1018.20 1018.05 1017.85 1017.63 1017.38 1017.12 1016.87 1016.61 1016.36 1016.13 1015.90 1015.70 1015.53 1015.41 1015.34 1015.35 1015.45 1015.65 1015.95 1016.33 1016.77 1017.23 1017.66 1018.01 1018.25 1018.34 1018.27 1018.05
Thickness
5707 5710 5711 5711 5711 5711 5712 5712 5712 5713 5714 5714 5715 5716 5717 5718 5719 5719 5719 5720 5720 5720 5721 5720 5720 5720 5720 5720 5721 5720 5720 5720 5720 5720 5720 5720 5720 5720 5719 5719 5719 5718 5718
5707 5707 5708 5708 5708 5708 5708 5709 5709 5710 5710 5711 5712 5713 5714 5715 5715 5716 5716 5717 5717 5717 5717 5718 5717 5717 5717 5718 5717 5717 5717 5717 5717 5717 5717 5717 5717 5717 5716 5716 5716 5716 5715
5704 5704 5704 5704 5704 5704 5704 5705 5705 5706 5706 5707 5708 5709 5710 5711 5712 5712 5713 5713 5714 5714 5714 5714 5714 5714 5714 5714 5714 5714 5714 5714 5713 5713 5714 5714 5714 5714 5714 5713 5713 5713 5712
5700 5700 5700 5700 5700 5700 5700 5700 5701 5702 5702 5703 5704 5705 5706 5707 5708 5709 5709 5710 5710 5710 5710 5710 5711 5711 5711 5711 5711 5711 5711 5710 5710 5710 5710 5711 5711 5711 5710 5710 5710 5710 5709
5695 5695 5695 5695 5695 5695 5696 5696 5697 5697 5698 5699 5700 5701 5702 5703 5704 5704 5705 5705 5706 5706 5706 5706 5706 5707 5707 5707 5707 5707 5707 5707 5707 5707 5707 5707 5708 5708 5707 5707 5707 5706 5706
5690 5690 5690 5690 5690 5690 5691 5691 5692 5693 5693 5694 5695 5696 5697 5698 5699 5700 5700 5701 5701 5702 5702 5702 5702 5702 5702 5703 5703 5703 5703 5703 5703 5703 5703 5704 5704 5704 5704 5703 5703 5703 5702
5684 5684 5684 5684 5685 5685 5686 5686 5687 5687 5688 5689 5690 5691 5692 5693 5694 5695 5696 5696 5697 5697 5697 5698 5698 5697 5698 5698 5699 5699 5699 5699 5699 5699 5699 5700 5700 5700 5700 5700 5700 5699 5699
5678 5678 5678 5678 5679 5679 5680 5681 5681 5682 5683 5683 5684 5685 5687 5688 5689 5690 5691 5692 5692 5692 5693 5693 5693 5693 5693 5694 5694 5694 5694 5694 5694 5694 5695 5695 5696 5697 5696 5696 5696 5696 5695
5672 5671 5671 5672 5673 5673 5674 5674 5675 5676 5677 5678 5678 5680 5681 5682 5684 5685 5686 5687 5687 5687 5687 5688 5688 5688 5688 5688 5689 5689 5689 5689 5689 5689 5690 5691 5692 5692 5693 5692 5692 5692 5691
5664 5664 5665 5666 5666 5667 5668 5668 5669 5670 5671 5672 5672 5674 5675 5676 5677 5679 5680 5681 5682 5682 5682 5682 5683 5683 5683 5683 5683 5684 5684 5684 5684 5684 5685 5686 5687 5688 5688 5688 5688 5688 5687
5655 5657 5658 5658 5660 5661 5661 5662 5663 5664 5665 5666 5666 5667 5668 5670 5671 5672 5674 5675 5676 5677 5677 5677 5677 5677 5677 5677 5677 5678 5678 5678 5679 5679 5679 5680 5682 5683 5683 5683 5683 5683 5683
5647 5649 5651 5652 5652 5654 5655 5656 5657 5658 5659 5660 5660 5661 5662 5663 5664 5666 5668 5669 5670 5670 5670 5671 5671 5671 5671 5670 5671 5672 5672 5672 5673 5673 5674 5676 5677 5678 5678 5678 5678 5678 5678
5642 5643 5644 5646 5646 5647 5649 5649 5650 5651 5652 5653 5654 5655 5656 5656 5658 5659 5661 5662 5663 5663 5663 5664 5664 5664 5664 5664 5664 5665 5665 5666 5667 5668 5669 5671 5671 5672 5672 5673 5673 5673 5672
5636 5637 5638 5640 5640 5641 5642 5643 5644 5645 5646 5646 5647 5648 5649 5649 5651 5652 5654 5655 5656 5656 5656 5657 5657 5657 5658 5657 5657 5658 5658 5660 5661 5662 5664 5665 5666 5667 5667 5667 5667 5667 5667
5631 5632 5633 5633 5633 5634 5635 5636 5637 5638 5639 5640 5640 5641 5642 5642 5643 5645 5646 5647 5648 5649 5650 5650 5650 5650 5650 5650 5650 5650 5651 5652 5654 5655 5657 5659 5660 5660 5661 5662 5661 5661 5661
5626 5627 5627 5627 5628 5628 5629 5629 5630 5631 5632 5632 5633 5634 5635 5635 5636 5637 5639 5640 5641 5642 5643 5643 5643 5643 5643 5643 5643 5643 5644 5645 5646 5648 5650 5651 5652 5654 5655 5655 5655 5654 5654
5622 5622 5622 5621 5622 5622 5622 5622 5623 5624 5624 5625 5626 5626 5627 5628 5629 5630 5631 5632 5633 5634 5635 5635 5635 5635 5635 5635 5635 5636 5637 5638 5639 5640 5642 5643 5645 5646 5647 5648 5648 5647 5647
5616 5615 5615 5616 5615 5615 5615 5615 5615 5616 5616 5617 5617 5618 5619 5621 5622 5623 5623 5625 5626 5626 5626 5627 5626 5626 5626 5626 5627 5627 5628 5630 5632 5633 5635 5636 5637 5638 5639 5639 5640 5640 5640
5610 5609 5608 5609 5609 5608 5608 5608 5608 5608 5608 5609 5609 5610 5612 5613 5614 5615 5616 5617 5618 5618 5618 5618 5618 5618 5618 5617 5618 5618 5620 5622 5624 5625 5626 5627 5628 5630 5631 5631 5631 5632 5632
5603 5603 5602 5602 5602 5601 5600 5600 5599 5599 5600 5600 5601 5602 5604 5605 5606 5607 5608 5609 5610 5610 5610 5610 5609 5609 5609 5608 5608 5607 5609 5611 5613 5615 5616 5617 5618 5620 5621 5622 5622 5623 5623
5596 5596 5596 5595 5594 5593 5592 5591 5590 5590 5591 5592 5593 5595 5596 5598 5599 5599 5600 5601 5602 5602 5603 5602 5600 5599 5598 5598 5597 5596 5597 5600 5602 5604 5606 5608 5609 5610 5610 5612 5613 5613 5614
5590 5589 5589 5588 5587 5587 5586 5585 5584 5584 5583 5584 5585 5587 5589 5590 5591 5592 5593 5593 5594 5594 5594 5593 5592 5590 5588 5589 5589 5587 5586 5587 5591 5594 5596 5598 5599 5600 5600 5601 5602 5603 5604
5582 5582 5583 5581 5581 5580 5580 5578 5577 5576 5575 5575 5576 5578 5580 5582 5583 5585 5585 5586 5586 5587 5586 5585 5584 5583 5581 5580 5581 5581 5578 5579 5579 5583 5585 5587 5588 5588 5590 5591 5593 5593 5594
5575 5575 5574 5573 5573 5573 5572 5571 5570 5568 5568 5568 5569 5570 5572 5574 5576 5577 5578 5578 5579 5579 5579 5578 5577 5576 5575 5573 5572 5572 5573 5572 5570 5571 5573 5575 5576 5577 5579 5581 5582 5582 5584
5566 5565 5565 5565 5564 5564 5564 5563 5562 5561 5561 5561 5562 5563 5564 5566 5567 5568 5569 5570 5570 5570 5570 5570 5569 5568 5567 5566 5565 5564 5562 5561 5561 5561 5561 5562 5564 5566 5567 5569 5571 5572 5573
5556 5556 5556 5556 5555 5555 5555 5555 5554 5554 5553 5553 5554 5555 5557 5557 5558 5560 5561 5562 5562 5562 5562 5562 5561 5560 5559 5558 5557 5556 5556 5554 5553 5551 5550 5550 5552 5554 5556 5558 5560 5562 5563